EW4380 Weather Reports


time (UTC)temp
C
wind
direction
speed
KPH
gust
KPH
rain 1hr
cm
rain 24hr
cm
rain mn
cm
humidity
%
barometer
mb
20260510120000 19 173 0.0 0.0 0.00 0.36 0.00 87 1011.5
20260510114559 19 173 0.0 0.0 0.00 0.36 0.00 86 1011.1
20260510113158 20 170 0.0 0.0 0.00 0.36 0.00 86 1011.4
20260510111606 20 170 0.0 4.8 0.00 0.36 0.00 86 1011.3
20260510110054 20 171 0.0 4.8 0.00 0.36 0.00 86 1011.4
20260510104610 20 171 0.0 3.2 0.00 0.36 0.00 86 1011.3
20260510103053 20 171 1.6 6.4 0.00 0.36 0.00 86 1011.2
20260510101551 20 172 0.0 3.2 0.00 0.36 0.00 86 1011.4
20260510100048 20 172 0.0 1.6 0.00 0.36 0.00 85 1011.4
20260510094546 20 172 0.0 0.0 0.00 0.36 0.00 84 1011.1
20260510093045 20 172 0.0 1.6 0.00 0.36 0.00 84 1011.0
20260510091544 20 172 0.0 0.0 0.00 0.36 0.00 84 1010.9
20260510090044 21 172 0.0 0.0 0.00 0.36 0.00 84 1010.9
20260510084542 21 172 0.0 0.0 0.00 0.36 0.00 84 1010.7
20260510083041 21 172 0.0 0.0 0.00 0.36 0.00 84 1010.6
20260510081542 21 172 0.0 0.0 0.00 0.36 0.00 83 1010.8
20260510080041 21 172 0.0 0.0 0.00 0.36 0.00 82 1010.5
20260510074536 22 172 0.0 1.6 0.00 0.36 0.00 82 1010.5
20260510073033 22 172 0.0 0.0 0.00 0.36 0.00 81 1010.6
20260510071530 22 172 0.0 1.6 0.00 0.36 0.00 80 1010.6
20260510070028 23 172 0.0 4.8 0.00 0.36 0.00 80 1010.7
20260510064528 23 173 0.0 4.8 0.00 0.36 0.00 79 1010.9
20260510063026 23 173 0.0 6.4 0.00 0.36 0.00 79 1010.7
20260510061529 23 173 1.6 8.0 0.00 0.36 0.00 78 1010.8
20260510060041 23 176 0.0 6.4 0.00 0.36 0.00 78 1010.8
20260510054519 24 178 1.6 11.3 0.00 0.36 0.00 78 1010.5
20260510053016 24 185 3.2 11.3 0.00 0.36 0.00 78 1010.3
20260510051514 24 183 6.4 14.5 0.00 0.36 0.00 77 1010.3
20260510050011 25 190 6.4 12.9 0.00 0.36 0.36 77 1010.3
20260510044512 25 180 3.2 11.3 0.00 0.36 0.36 75 1010.3
20260510043011 26 181 4.8 12.9 0.00 0.36 0.36 73 1010.3
20260510041515 26 176 4.8 14.5 0.00 0.36 0.36 72 1010.4
20260510040009 26 130 4.8 16.1 0.00 0.36 0.36 73 1010.3
20260510034509 25 175 1.6 4.8 0.00 0.36 0.36 75 1010.2
20260510033008 26 177 0.0 3.2 0.00 0.36 0.36 75 1009.9
20260510031507 26 177 0.0 3.2 0.00 0.36 0.36 76 1009.8
20260510030007 25 177 0.0 4.8 0.00 0.36 0.36 78 1009.6
20260510024511 26 178 0.0 3.2 0.00 0.36 0.36 77 1009.5
20260510023015 26 178 0.0 3.2 0.00 0.36 0.36 74 1009.2
20260510021506 27 178 1.6 6.4 0.00 0.36 0.36 72 1009.0
20260510020005 27 184 1.6 6.4 0.00 0.36 0.36 72 1008.8
20260510014505 27 188 1.6 4.8 0.00 0.36 0.36 72 1008.5
20260510013010 28 188 0.0 1.6 0.00 0.36 0.36 71 1008.2
20260510011510 28 188 0.0 1.6 0.00 0.36 0.36 68 1007.9
20260510010008 30 188 0.0 4.8 0.00 0.36 0.36 65 1007.6
20260510004501 30 165 0.0 3.2 0.00 0.36 0.36 64 1007.5
20260510003002 31 165 0.0 8.0 0.00 0.36 0.36 63 1007.3
20260510001600 31 165 1.6 4.8 0.00 0.36 0.36 60 1007.4
20260510000100 31 165 0.0 9.7 0.00 0.36 0.36 58 1007.7
20260509234606 31 180 0.0 4.8 0.00 0.36 0.36 57 1007.9
20260509233102 31 180 4.8 8.0 0.00 0.36 0.36 55 1007.8
20260509231602 31 173 3.2 9.7 0.00 0.36 0.36 58 1007.8
20260509230054 31 174 1.6 6.4 0.00 0.36 0.36 58 1007.8
20260509224557 31 178 1.6 9.7 0.00 0.36 0.36 58 1007.7
20260509223052 31 175 1.6 6.4 0.00 0.36 0.36 59 1007.8
20260509221550 32 182 0.0 8.0 0.00 0.36 0.36 60 1007.9
20260509220049 31 175 4.8 11.3 0.00 0.36 0.36 59 1007.8
20260509214547 31 187 3.2 12.9 0.00 0.36 0.36 61 1007.8
20260509213100 31 192 3.2 9.7 0.00 0.36 0.36 61 1007.9
20260509211608 31 217 1.6 6.4 0.00 0.36 0.36 63 1007.9
20260509210042 31 234 1.6 8.0 0.00 0.36 0.36 61 1008.3
20260509204553 30 287 3.2 12.9 0.00 0.36 0.36 62 1008.6
20260509203044 30 231 4.8 14.5 0.00 0.36 0.36 64 1008.8
20260509201536 30 259 1.6 11.3 0.00 0.36 0.36 65 1009.0
20260509200035 30 233 4.8 14.5 0.00 0.36 0.36 66 1009.3
20260509194535 30 317 6.4 16.1 0.00 0.36 0.36 65 1009.7
20260509193033 30 261 8.0 16.1 0.00 0.36 0.36 68 1009.7
20260509191533 30 255 4.8 16.1 0.00 0.36 0.36 69 1009.8
20260509190028 29 245 9.7 16.1 0.00 0.36 0.36 70 1009.9
20260509184527 29 231 1.6 12.9 0.00 0.36 0.36 67 1010.1
20260509183026 29 286 8.0 14.5 0.00 0.36 0.36 71 1010.2
20260509181524 28 219 3.2 12.9 0.00 0.36 0.36 71 1010.4
20260509180023 28 228 1.6 14.5 0.00 0.36 0.36 71 1010.7
20260509174523 28 236 6.4 16.1 0.00 0.36 0.36 70 1010.7
20260509173021 28 264 4.8 16.1 0.00 0.36 0.36 75 1010.9
20260509171518 28 223 4.8 14.5 0.00 0.36 0.36 75 1010.9
20260509170017 27 175 4.8 22.5 0.00 0.36 0.36 75 1010.8
20260509164515 27 252 11.3 17.7 0.00 0.36 0.36 76 1011.1
20260509163013 27 211 4.8 11.3 0.00 0.36 0.36 79 1011.2
20260509161512 26 224 4.8 12.9 0.00 0.36 0.36 80 1011.3
20260509160008 26 229 4.8 12.9 0.00 0.36 0.36 82 1011.5
20260509154507 26 194 1.6 9.7 0.00 0.36 0.36 82 1011.9
20260509153014 25 181 1.6 11.3 0.00 0.36 0.36 84 1011.7
20260509151501 25 195 4.8 9.7 0.00 0.36 0.36 86 1011.9
20260509150058 23 115 1.6 4.8 0.00 0.36 0.36 88 1012.0
20260509144554 22 111 1.6 4.8 0.03 0.36 0.36 89 1011.9
20260509143059 22 106 0.0 6.4 0.08 0.36 0.36 89 1012.1
20260509141552 22 174 1.6 4.8 0.20 0.36 0.36 90 1011.8
20260509140056 22 175 3.2 6.4 0.23 0.36 0.36 90 1011.8
20260509134553 22 176 3.2 9.7 0.33 0.33 0.33 90 1011.8
20260509133057 22 84 0.0 4.8 0.25 0.25 0.25 90 1011.4
20260509131540 22 81 0.0 4.8 0.15 0.15 0.15 90 1011.1
20260509130034 22 81 1.6 4.8 0.13 0.13 0.13 89 1011.4
20260509124530 22 81 1.6 6.4 0.00 0.00 0.00 89 1011.7
20260509123026 22 81 0.0 6.4 0.00 0.00 0.00 89 1011.7
20260509121523 22 81 0.0 4.8 0.00 0.00 0.00 89 1011.2